Theta_e
312 313 313 313 313 314 313 313 314 314 313 311 313 314 316 318 320 324 326 325 326 323 323 326 331 330 329 323 320 316 318 326 327 328 327 323 322 324 325 326 329 331 331 331 331
311 311 313 314 313 313 313 313 314 312 311 310 311 313 317 319 320 320 323 325 325 325 324 325 327 328 326 322 320 321 320 324 324 325 324 320 320 322 329 329 332 332 331 331 331
311 311 311 312 313 312 311 313 313 312 312 312 313 313 317 319 319 318 318 321 325 324 323 325 327 326 327 324 325 321 324 320 320 323 320 322 319 322 327 329 329 332 331 330 330
311 310 311 311 311 311 312 314 314 312 312 311 313 314 317 319 305 321 321 320 325 324 320 325 324 327 328 329 323 328 326 326 325 323 321 322 315 323 325 327 325 328 331 330 330
312 311 310 311 310 310 310 313 314 312 312 311 312 314 317 316 316 317 318 322 324 321 319 321 325 326 329 327 325 328 327 327 328 323 322 321 320 315 322 322 324 330 330 330 330
313 312 311 310 310 310 309 310 311 311 312 310 310 314 316 315 314 313 314 320 324 319 320 321 324 323 326 326 326 326 326 326 325 325 323 324 322 317 320 319 331 331 331 330 329
313 312 311 311 309 309 309 309 310 312 313 311 313 314 315 313 316 319 318 320 324 319 320 321 322 324 322 324 322 325 328 327 326 327 325 320 326 315 314 320 332 332 331 330 329
314 312 311 310 310 309 309 308 310 313 313 310 314 314 312 314 315 316 318 321 323 321 320 321 322 322 323 322 324 327 327 330 326 326 324 323 330 320 315 322 331 332 330 330 328
314 312 312 311 310 309 308 307 310 313 311 311 313 313 312 314 315 314 316 318 320 321 322 322 322 324 323 327 329 328 332 329 327 325 320 323 326 322 313 319 327 332 331 330 329
314 312 312 311 310 309 308 309 311 311 312 312 312 313 311 312 314 317 317 318 316 318 321 323 324 326 327 328 331 331 332 327 329 326 326 322 324 322 320 316 319 328 330 330 329
315 312 311 312 309 309 307 310 310 310 310 309 309 309 312 315 317 316 317 316 316 319 324 322 325 327 327 326 327 327 328 329 327 327 329 328 327 327 324 316 312 315 327 328 329
315 313 311 312 310 309 308 307 307 306 309 309 308 309 312 314 314 316 317 317 318 319 318 321 324 321 324 325 326 325 329 329 328 327 330 329 329 327 327 321 312 313 319 327 328
314 313 312 312 310 309 309 307 307 306 305 308 308 310 310 311 313 313 317 316 318 319 319 319 321 319 323 324 326 328 328 328 330 326 328 327 329 327 322 322 321 314 316 322 326
309 314 313 312 310 308 308 306 307 305 295 302 308 307 311 310 311 312 315 315 316 318 319 320 318 318 322 324 325 328 327 328 328 330 333 329 335 330 328 324 320 317 314 317 322
308 310 312 311 310 308 307 306 306 300 292 298 308 307 309 308 307 313 315 315 316 318 318 318 319 319 321 324 322 325 324 325 329 331 331 330 333 329 328 328 324 319 315 314 316
307 306 313 311 308 307 306 307 301 293 292 303 310 309 311 309 311 313 316 313 312 316 314 314 310 314 318 319 322 322 323 322 323 329 334 330 332 330 329 329 328 324 319 316 314
306 305 312 309 308 306 307 305 301 293 297 310 309 310 309 309 312 312 315 314 314 316 316 309 313 310 312 320 318 324 326 328 329 327 333 326 330 330 325 324 325 326 325 319 316
304 304 305 309 307 305 306 303 297 293 297 306 309 308 308 308 308 312 312 314 312 313 315 317 318 312 313 320 322 323 325 328 329 327 324 318 331 328 323 323 322 318 322 323 317
305 305 303 308 306 305 306 304 301 298 302 309 311 309 309 311 310 309 310 312 313 312 316 318 319 311 312 313 318 322 325 321 321 310 318 315 315 311 316 315 320 320 315 319 315
303 302 300 307 306 305 305 303 299 298 306 309 307 309 310 312 314 310 311 310 310 312 313 316 318 312 313 312 312 316 318 324 322 325 328 321 317 322 317 316 312 311 310 311 311
302 300 302 306 305 304 305 302 302 303 306 304 304 304 305 312 313 314 315 313 310 310 311 314 316 313 312 313 316 316 318 321 319 321 325 322 319 309 317 316 315 313 309 308 307
298 303 303 306 305 303 304 300 305 305 304 304 303 305 307 310 312 312 314 312 311 311 313 313 317 312 314 311 312 318 319 319 325 324 318 313 317 306 305 305 306 308 305 306 305
298 300 303 305 306 305 304 302 304 303 304 303 305 305 306 310 310 310 312 311 310 312 315 315 316 316 315 313 311 313 315 318 318 315 322 319 321 306 304 304 305 306 304 303 303
298 304 304 304 304 304 304 303 303 302 303 301 303 304 305 307 306 308 309 308 309 312 314 314 316 317 315 312 313 316 318 316 319 322 322 321 320 311 305 306 305 305 304 302 301
296 302 300 305 305 304 303 302 303 304 303 302 303 304 303 303 306 306 307 306 307 310 312 313 313 315 313 312 313 314 316 317 319 320 322 321 318 317 306 304 304 305 304 303 302
299 301 299 302 303 303 304 302 303 303 303 303 303 304 302 302 302 305 305 306 307 308 313 310 312 312 314 316 313 314 315 316 317 319 320 317 313 312 310 303 303 304 303 303 304
294 297 304 304 304 304 303 302 302 302 302 302 303 304 304 302 302 302 305 305 306 307 307 307 311 313 318 313 314 316 314 315 315 316 318 319 316 309 307 303 303 303 302 303 303
Wind_Speed
26 22 21 20 19 18 16 15 14 12 9 6 7 6 4 4 2 6 6 11 17 6 5 7 4 6 5 4 6 4 3 3 3 4 5 6 4 1 2 6 2 3 6 10 33
28 25 22 20 20 20 18 16 14 11 10 8 6 6 4 1 3 12 12 14 12 16 11 11 4 4 4 3 2 5 2 3 6 3 6 8 6 6 4 5 2 3 3 29 37
31 27 24 23 21 21 20 18 16 12 10 8 6 6 4 4 2 5 14 21 17 15 14 12 10 4 4 3 5 8 6 4 7 14 13 10 7 3 6 4 6 11 11 25 27
34 30 27 26 24 22 20 18 16 14 11 8 8 6 8 7 5 3 10 18 21 18 15 13 5 6 5 5 4 4 9 7 5 7 8 12 13 9 7 9 10 10 17 27 21
37 34 31 27 26 23 22 20 16 15 12 10 9 9 8 4 6 10 8 6 22 23 20 6 5 6 6 6 6 5 6 8 9 4 8 11 13 13 8 8 6 16 17 19 22
41 37 34 31 27 24 22 21 20 16 14 11 10 12 3 6 3 12 16 6 16 20 16 12 7 5 4 6 8 7 11 12 9 8 3 9 14 6 9 5 9 16 18 16 20
45 40 37 33 29 25 24 19 18 18 15 12 12 13 5 11 7 0 4 8 21 21 7 14 7 6 7 3 3 5 6 7 11 9 7 2 15 9 12 5 11 14 16 17 21
47 44 40 36 31 27 23 20 18 18 15 13 13 9 5 5 16 8 2 7 13 12 12 11 8 4 3 5 2 6 3 8 6 9 3 13 20 17 11 7 11 13 11 14 17
49 46 44 39 34 29 24 20 19 16 14 15 11 7 5 3 7 21 14 5 7 9 12 11 3 4 4 5 3 6 11 7 2 10 8 6 8 18 9 10 14 12 14 15 14
52 49 46 43 38 32 26 22 18 15 15 14 6 3 4 5 9 13 15 13 4 5 1 6 7 6 7 10 16 12 12 6 11 10 9 8 13 14 18 12 15 14 15 15 15
54 53 50 47 42 36 31 22 10 3 11 6 9 3 2 9 10 13 12 11 5 2 9 3 7 17 20 22 12 14 11 18 9 9 7 16 17 19 19 16 15 13 13 16 17
57 57 56 51 45 41 39 10 20 9 9 11 3 4 3 7 5 6 17 8 8 12 7 4 22 19 8 9 18 20 14 13 3 10 10 11 18 21 20 21 12 15 17 19 20
50 63 60 58 51 45 40 26 29 20 6 6 6 7 4 4 5 9 13 7 5 9 15 19 7 12 14 16 14 15 26 11 5 1 8 3 9 18 13 20 23 18 17 20 23
27 49 63 58 47 44 35 31 27 6 5 4 9 8 5 6 4 9 21 8 7 10 18 14 18 18 11 17 15 19 12 14 11 7 5 7 10 18 14 21 23 21 18 19 21
34 25 64 66 43 32 44 32 31 12 2 7 7 11 13 10 7 8 16 5 8 8 6 7 7 13 21 16 15 14 14 15 10 7 2 6 7 11 14 18 21 20 19 20 21
37 8 71 61 44 43 47 41 23 6 7 5 7 11 13 9 5 7 10 4 1 5 5 6 2 5 17 7 2 7 4 4 3 7 11 16 12 19 16 13 16 18 22 24 21
36 28 53 53 29 57 51 20 6 6 3 10 9 17 16 13 8 10 15 17 12 10 14 2 4 4 4 13 1 8 7 4 5 4 9 10 11 25 5 11 20 23 25 24 24
32 33 17 58 54 64 32 12 6 7 8 2 11 21 17 16 16 14 14 14 22 11 5 10 8 9 5 7 9 18 12 3 4 4 3 4 14 8 13 20 21 14 16 20 22
27 31 25 42 65 62 20 16 14 11 10 15 17 21 8 12 9 12 8 15 16 20 11 10 10 3 4 2 5 6 13 6 3 3 2 5 8 7 10 9 12 19 15 16 19
13 16 9 41 59 42 18 16 7 8 15 17 7 10 10 20 7 17 17 12 18 17 16 6 3 5 5 2 1 5 9 4 3 6 11 7 7 11 6 12 15 13 14 11 10
9 5 10 56 56 19 23 12 6 9 17 8 6 6 8 14 13 12 15 3 20 18 19 5 3 3 4 7 9 5 3 4 2 4 5 2 7 6 15 12 14 18 13 10 9
2 4 27 45 15 13 18 10 7 16 4 6 6 5 12 15 14 11 12 7 12 16 20 18 4 5 9 1 5 13 7 6 5 5 4 3 9 5 5 5 8 10 9 6 6
5 3 37 32 14 15 14 4 5 12 8 5 5 3 3 10 10 14 7 6 7 17 13 16 6 4 6 1 2 6 7 13 5 3 15 6 10 3 3 4 5 9 8 7 6
3 5 8 10 9 31 22 10 7 5 4 5 6 6 7 4 1 10 7 5 4 8 17 13 9 12 17 11 7 12 20 22 22 12 21 21 16 7 5 5 3 5 6 6 6
2 3 3 12 12 21 21 14 19 9 5 6 3 7 9 5 6 6 5 3 4 7 6 8 3 7 15 6 14 17 23 24 23 29 17 34 21 19 8 8 7 7 4 5 7
2 2 2 7 23 22 21 18 23 6 7 6 12 12 6 7 7 7 8 6 5 4 5 9 6 8 13 24 15 14 25 26 27 30 27 16 12 11 11 4 6 8 9 8 7
3 5 10 15 22 18 20 19 22 12 6 9 16 7 7 8 6 6 4 4 5 6 4 4 1 2 7 8 12 6 25 26 25 28 31 18 22 5 7 10 11 10 9 9 8
Wind_Direction
226 222 222 224 221 222 224 225 223 221 227 217 216 224 244 277 202 217 217 219 217 216 187 182 180 128 89 82 57 37 317 265 242 180 257 316 331 282 109 125 40 1 155 176 164
230 223 218 220 218 218 220 216 218 224 215 215 209 209 220 256 212 243 227 218 210 228 209 173 147 119 62 81 58 102 280 246 302 305 347 317 264 205 136 138 27 18 12 147 161
228 227 221 216 219 219 221 219 219 215 216 209 199 196 187 126 340 234 240 222 216 210 219 194 170 111 116 180 181 147 177 314 317 352 359 320 302 227 154 245 197 187 165 157 164
226 226 222 217 217 217 212 212 215 212 207 203 196 183 155 142 200 69 6 228 211 207 180 142 120 140 140 176 181 185 198 197 279 339 344 319 317 292 200 215 194 173 173 161 173
224 223 221 217 215 215 212 210 206 206 206 199 187 178 150 189 239 261 327 212 209 197 177 155 145 138 176 170 135 213 199 189 219 329 310 314 295 270 264 247 124 145 165 180 182
222 221 219 215 215 213 210 212 211 210 205 201 194 179 182 214 222 264 278 267 190 191 180 164 173 182 160 171 186 196 222 206 200 191 213 279 295 284 269 186 146 158 180 185 188
217 219 219 216 211 209 207 208 200 200 198 200 191 180 203 224 198 247 210 234 202 196 190 198 196 169 138 130 189 135 184 233 232 191 191 120 276 224 247 211 176 189 190 187 197
212 216 215 215 212 205 204 201 192 193 192 191 186 179 235 214 216 250 258 222 215 202 216 202 194 117 200 119 116 165 164 218 205 182 179 107 266 280 294 200 210 200 195 201 200
210 212 213 210 207 203 194 188 187 189 186 182 168 185 235 190 193 217 229 191 176 196 220 213 164 173 118 191 194 218 226 214 232 184 153 148 249 258 276 212 219 204 199 204 207
206 209 209 207 203 198 187 177 171 156 162 158 158 158 201 206 168 187 199 187 130 130 119 223 206 208 195 197 217 209 220 204 214 194 207 172 241 260 269 266 239 217 206 207 205
204 207 204 200 197 190 176 155 150 178 187 187 185 224 142 130 136 181 175 138 112 157 208 201 264 213 205 209 226 228 210 225 202 179 198 216 231 240 250 254 243 233 227 209 211
204 201 199 194 190 184 173 174 182 153 185 242 299 240 146 133 137 157 175 174 183 210 208 188 233 224 231 221 235 256 220 218 229 188 204 228 232 239 243 241 233 232 224 218 219
205 197 191 186 184 173 178 178 169 155 129 209 194 202 205 159 166 180 178 175 204 200 205 225 184 213 240 237 239 249 235 215 192 105 239 333 263 258 245 239 247 243 226 222 217
209 199 181 177 168 172 181 173 163 164 75 234 183 227 172 135 265 173 188 188 207 215 206 234 234 248 224 229 223 251 233 237 195 172 224 166 274 253 240 234 237 231 225 219 219
205 204 184 178 166 177 172 168 175 98 132 210 170 169 161 168 139 215 178 222 194 171 169 206 186 208 228 237 216 243 224 249 254 253 288 215 261 275 211 231 238 232 227 221 220
218 225 179 175 166 168 158 155 142 72 237 184 144 166 157 180 171 126 174 94 4 177 245 252 15 246 219 190 180 175 102 31 125 229 235 224 223 263 238 228 245 236 226 222 217
211 206 184 169 167 162 156 147 120 154 244 172 175 174 168 172 171 170 180 192 193 194 226 102 222 301 266 192 112 219 152 209 234 205 240 184 214 241 246 225 235 235 233 223 214
206 211 241 176 158 159 161 148 125 175 193 156 156 163 180 153 205 181 175 199 211 218 182 206 225 183 207 192 201 210 202 186 222 192 203 203 230 253 214 235 245 241 241 236 221
189 198 210 172 158 158 161 173 187 173 160 158 139 164 169 184 158 188 210 208 204 210 210 190 225 195 267 115 155 166 207 226 81 55 338 226 281 273 246 237 241 252 243 234 217
156 164 229 181 160 159 165 177 147 168 132 146 145 174 166 182 152 176 178 212 218 193 216 218 215 230 144 96 77 225 148 147 170 204 232 247 264 240 297 239 224 232 225 230 215
159 127 192 168 157 169 172 180 132 162 139 138 148 127 169 172 181 186 186 223 198 190 206 239 181 133 122 205 170 169 213 174 148 218 217 248 253 223 231 229 227 225 213 213 204
104 136 175 170 163 175 180 148 119 154 115 109 106 111 168 162 174 192 197 192 196 171 200 204 206 188 196 51 270 217 207 190 201 203 256 285 263 212 250 280 268 263 230 197 225
136 121 176 178 170 166 173 122 103 152 147 137 120 160 101 160 182 201 194 209 249 182 190 190 198 173 154 292 223 218 202 211 256 42 218 205 262 259 240 329 306 249 218 206 201
165 145 165 180 191 156 166 157 124 115 83 101 113 98 112 144 263 171 166 238 227 217 196 178 206 220 223 229 145 209 206 209 205 215 229 227 239 282 247 244 268 280 239 201 189
226 164 124 163 172 154 167 154 146 150 119 156 51 158 144 134 145 160 168 219 227 200 168 176 265 239 257 281 192 204 203 201 214 230 219 239 233 237 245 227 227 203 254 206 211
234 147 203 129 148 149 174 178 167 114 155 172 140 158 153 134 161 179 163 186 191 77 182 179 237 233 257 234 218 204 207 197 206 232 238 248 272 237 230 209 184 217 189 215 222
181 261 157 147 161 156 182 175 169 127 29 123 139 131 169 170 155 133 148 150 152 143 150 160 143 268 252 182 185 224 206 199 213 225 226 230 232 214 213 207 208 194 198 207 222